SCP
-0 -0 -0 0 0 0 0 0 0 0 0 0 0 0 0 0 0 0 0 0 0 0 0 0 0 0 0 0 0 0 0 0 0 0 0 0 0 0 0 0 0 0 0
-0 -0 -0 -0 0 0 0 0 0 0 0 0 0 0 0 0 0 0 0 0 0 0 -0 0 0 0 0 0 0 0 0 0 0 0 0 0 0 0 0 0 0 0 0
-0 -0 -0 -0 -0 -0 0 0 0 0 0 0 0 0 0 0 0 0 0 0 0 -0 -0 0 -0 0 0 0 0 0 0 0 0 0 0 0 0 0 0 0 0 0 0
-0 -0 -0 0 0 -0 -0 0 0 0 0 0 0 0 0 0 0 0 0 0 0 0 0 0 0 0 0 0 -0 0 0 0 0 0 0 0 0 0 0 0 0 0 0
0 0 0 0 0 0 0 0 0 0 0 0 0 0 0 0 0 0 0 0 0 0 0 0 -0 0 0 -0 -0 0 0 0 0 0 0 0 0 0 0 0 0 0 0
0 0 0 0 0 0 0 0 0 0 0 0 0 0 0 0 0 0 0 0 0 0 0 0 0 0 -0 -0 0 0 0 0 0 0 0 0 0 0 0 0 0 0 0
0 0 0 0 0 0 0 0 0 0 0 0 0 0 0 0 0 0 0 0 0 0 0 0 0 0 -0 0 0 0 0 0 0 0 0 0 0 0 0 0 0 0 0
0 0 0 0 -0 -0 -0 0 0 0 0 0 0 0 0 0 0 0 0 0 0 0 0 0 0 0 0 0 0 -0 0 0 0 0 0 0 0 0 0 0 0 0 0
0 0 0 0 -0 -0 -0 0 0 0 0 0 0 0 0 0 0 0 0 0 0 0 0 0 0 0 0 0 0 0 0 0 0 0 0 0 0 0 0 0 0 0 0
0 -0 -0 -0 0 0 0 0 0 0 0 0 0 0 0 0 0 0 0 0 0 0 0 0 0 0 0 0 0 0 0 0 0 0 0 0 0 0 -0 0 0 0 0
0 0 0 0 0 0 0 0 0 0 0 0 0 0 0 0 0 0 0 0 0 0 0 0 0 0 0 0 0 0 0 0 0 0 -0 0 -0 0 -0 0 0 0 0
0 0 0 0 0 0 0 0 0 0 0 0 0 0 0 0 0 0 0 0 0 0 0 0 0 0 0 0 0 0 0 0 0 0 0 0 0 -0 0 0 0 0 0
0 0 0 0 0 0 0 0 0 0 0 0 0 0 0 0 0 0 0 0 0 0 0 0 0 0 0 0 0 0 0 0 0 0 0 0 0 0 0 0 0 0 0
0 0 0 0 0 0 0 0 0 0 0 0 0 0 0 0 0 0 0 0 0 0 0 0 0 0 0 0 0 0 0 0 0 0 0 0 0 0 0 0 0 0 0
0 0 0 0 0 0 0 0 0 0 0 0 0 0 0 0 0 0 0 0 0 0 0 0 0 0 0 0 0 0 0 0 0 0 0 0 0 0 0 0 0 0 0
0 0 0 0 0 0 0 0 0 0 0 0 -0 0 0 0 0 0 0 0 0 0 0 0 0 0 0 0 0 0 0 0 0 0 0 0 0 0 0 0 0 0 0
0 0 0 0 0 0 0 0 0 0 0 0 0 0 0 0 0 0 0 0 0 0 0 0 0 0 0 0 0 0 0 0 0 0 0 0 0 0 0 0 0 0 0
0 0 0 0 0 0 0 0 0 0 0 0 0 0 0 0 0 0 0 0 0 0 0 -0 0 0 0 0 0 0 0 0 0 0 0 0 0 0 0 0 0 0 0
0 0 0 0 0 0 0 0 0 0 0 0 0 0 0 0 -0 -0 0 0 0 0 0 -0 0 -0 0 0 0 0 0 0 0 0 0 0 0 0 0 0 0 0 0
0 0 0 0 0 0 0 0 0 0 0 0 0 0 0 0 0 0 0 0 0 0 0 0 0 -0 0 0 0 0 0 0 0 0 0 0 0 0 0 0 0 0 0
0 0 0 0 0 0 0 0 0 0 0 0 0 0 0 0 0 0 0 0 0 0 0 0 0 0 0 0 0 0 0 0 0 0 0 0 0 0 0 -0 0 0 0
0 0 0 0 0 0 0 0 0 0 0 0 0 0 0 0 0 0 0 0 0 0 0 0 0 0 0 0 0 0 0 0 0 0 0 0 -0 -0 -0 0 0 0 0
0 0 0 0 0 0 0 0 0 0 0 0 -0 0 0 0 0 0 0 0 0 0 0 0 0 0 0 0 0 0 0 0 0 0 0 0 0 0 0 0 0 0 0
0 0 0 0 0 0 -0 0 0 0 0 0 0 0 0 0 0 0 0 0 0 0 0 0 0 0 0 0 0 0 0 0 0 0 0 0 0 0 0 0 0 0 0
0 0 0 0 -0 -0 0 0 0 0 0 0 0 0 0 0 0 0 0 0 0 0 0 0 0 0 0 0 0 0 0 0 0 0 0 0 0 0 0 0 0 0 0
-0 -0 -0 0 0 -0 -0 0 0 0 0 0 0 0 0 0 0 0 0 0 0 0 0 0 0 0 0 0 0 0 0 0 0 0 0 0 0 0 0 -0 0 0 0
Wind_Speed_500mb
29 30 33 38 39 37 38 38 30 31 33 35 28 19 18 18 22 28 38 47 56 72 61 46 45 30 31 46 45 41 43 42 37 38 43 35 29 23 22 16 13 17 13
34 37 40 42 39 42 39 40 36 32 30 31 30 24 18 13 17 18 25 51 62 70 68 58 54 39 40 38 44 41 50 50 47 41 45 39 29 22 22 18 16 14 13
36 41 38 39 43 45 41 36 37 36 35 35 30 25 31 23 19 21 17 18 47 71 63 59 79 64 64 47 48 56 54 55 50 43 40 41 30 24 22 22 21 20 18
44 39 38 41 40 33 35 36 30 28 33 35 35 27 27 37 22 19 19 21 27 49 61 75 76 70 62 68 60 62 56 57 53 49 39 38 32 27 25 25 23 19 17
35 37 37 40 43 43 44 42 41 37 34 35 29 33 33 37 39 30 28 25 21 30 48 62 81 68 65 81 73 69 61 63 62 58 51 44 34 30 37 27 25 21 18
35 42 46 51 52 49 45 41 38 33 27 24 29 25 24 29 37 37 31 28 20 19 20 30 63 70 75 85 81 89 47 56 69 74 63 57 36 38 40 34 35 29 22
38 43 47 53 56 55 54 55 54 52 50 44 38 28 25 23 27 37 39 38 36 34 29 29 38 50 78 72 87 94 85 72 78 81 67 59 46 45 49 45 44 34 23
53 58 63 68 69 69 66 65 64 61 57 54 55 54 47 34 32 34 41 45 51 48 47 45 37 42 51 54 83 115 96 87 89 76 67 71 54 41 44 41 40 35 30
51 51 51 56 64 66 65 58 54 55 54 57 58 58 54 56 50 38 40 47 54 50 54 50 50 41 40 47 54 79 95 119 104 92 90 70 61 38 37 52 52 47 33
56 61 62 62 59 59 60 59 58 56 54 53 53 53 54 58 58 56 55 51 59 64 59 56 57 54 47 41 51 79 93 106 101 81 88 84 73 81 58 59 66 52 35
55 55 54 53 56 58 59 64 62 63 61 59 53 49 49 48 49 47 55 57 69 76 83 76 62 60 53 48 46 51 83 109 97 102 103 103 99 73 78 78 74 48 40
53 53 57 64 64 65 67 65 61 56 55 55 53 50 45 38 29 29 32 39 46 54 61 64 68 68 59 44 43 44 42 76 98 114 116 125 123 95 75 75 68 55 43
48 57 63 64 59 55 57 60 59 57 56 56 54 49 48 38 31 26 32 44 49 52 51 59 64 68 73 60 54 45 46 48 67 77 70 90 108 115 76 72 69 62 47
60 63 60 59 58 57 57 53 53 54 55 54 51 50 48 43 45 40 33 40 39 52 58 62 66 60 75 70 62 54 51 51 52 62 65 62 72 74 76 74 72 66 61
54 52 54 57 56 58 55 52 50 49 47 50 51 52 55 58 54 49 48 55 49 54 44 42 56 56 53 65 63 61 55 55 55 52 61 59 61 64 70 81 75 76 74
51 52 53 54 54 55 57 63 58 55 49 45 45 47 53 58 58 55 52 51 52 55 63 49 36 38 38 55 63 64 61 55 54 55 53 55 70 66 73 80 84 93 82
50 52 51 51 53 55 55 59 69 64 57 50 43 36 34 41 43 43 45 44 48 44 60 64 54 41 36 40 50 63 61 59 44 45 51 55 56 55 81 73 83 99 92
48 49 51 54 55 55 55 56 58 63 66 63 53 46 38 30 33 35 39 43 50 48 56 67 60 51 36 38 44 40 37 48 43 44 44 52 50 61 63 84 88 98 104
49 49 50 54 56 57 56 56 57 59 63 67 65 56 46 37 31 31 33 46 47 48 46 56 63 62 42 33 29 35 38 43 44 33 36 48 45 52 65 86 103 96 103
46 46 48 53 56 59 60 61 62 63 65 65 64 60 54 45 42 33 30 31 43 48 45 47 55 62 57 40 33 29 31 35 30 34 40 40 48 38 63 72 96 104 101
50 51 51 52 57 60 63 64 65 67 67 64 61 57 52 50 48 43 37 39 35 35 40 40 47 54 63 55 43 37 34 32 29 30 36 34 30 45 44 54 90 102 105
49 52 54 59 60 65 67 63 63 65 65 62 61 58 51 48 45 43 40 39 40 46 35 32 37 47 53 59 60 53 51 39 32 27 27 34 30 37 47 69 54 113 104
47 54 59 60 62 68 66 64 64 61 60 58 55 53 47 44 41 40 39 37 35 43 49 50 44 37 43 52 55 60 48 41 35 29 28 34 25 35 47 43 47 77 101
53 57 59 62 66 72 68 68 66 60 56 54 51 50 45 45 40 40 38 35 33 37 43 46 58 52 43 43 55 56 64 41 26 36 38 35 41 36 37 44 38 35 91
57 61 63 66 71 73 71 70 66 62 57 55 53 50 48 44 42 38 35 37 37 34 35 44 44 57 54 46 44 57 50 42 45 33 32 29 30 27 36 44 45 32 22
60 62 67 69 73 70 71 69 65 60 57 55 52 48 45 42 40 37 35 34 34 33 31 37 37 45 55 53 51 52 61 59 53 51 32 34 41 47 55 46 46 51 47
Wind_Direction_500mb
360 355 347 343 340 342 348 348 352 359 359 1 3 348 334 334 306 293 257 241 245 240 244 258 266 260 253 238 248 241 228 229 230 223 222 220 226 239 253 251 243 243 237
342 330 333 328 329 333 340 341 338 341 343 346 351 347 339 332 334 325 276 249 245 242 238 238 250 251 237 234 251 253 226 242 243 243 223 218 225 241 246 246 239 250 246
318 318 330 327 325 329 336 340 338 342 329 329 329 339 328 331 325 341 332 320 253 243 238 243 248 245 234 242 235 254 237 235 241 243 229 224 218 229 244 238 238 236 236
312 316 317 310 312 319 317 316 319 316 316 323 322 314 314 318 318 308 329 327 298 244 239 243 251 243 232 230 236 247 238 226 230 233 228 223 222 219 235 236 240 251 246
299 295 297 293 294 301 304 304 305 308 303 299 300 308 307 310 311 313 298 302 310 256 256 246 240 237 240 230 247 249 240 237 223 220 221 226 225 231 238 238 235 250 258
296 291 292 293 294 297 294 299 302 301 301 301 288 277 304 298 295 298 296 292 288 294 289 261 251 257 243 235 251 240 243 230 225 225 224 228 225 245 241 239 238 239 249
292 297 299 298 296 295 297 296 294 296 294 291 288 290 270 255 266 275 278 275 275 271 264 273 276 251 240 251 239 238 240 229 224 227 223 230 236 239 245 237 235 236 252
301 300 300 299 299 299 298 294 293 294 293 290 285 283 280 274 255 250 259 275 271 272 270 265 269 267 258 254 238 236 237 235 226 228 228 233 249 243 244 256 245 227 241
313 311 311 310 310 308 308 308 306 300 297 292 287 283 279 273 261 253 243 250 262 271 267 262 262 265 268 267 258 245 239 234 234 226 225 231 231 231 248 251 226 220 233
317 316 314 311 311 313 312 312 309 310 308 305 297 292 286 278 266 258 246 247 253 264 271 264 257 260 259 266 258 252 236 226 222 215 214 227 245 243 263 248 241 231 230
319 318 320 319 318 317 314 310 310 308 307 303 303 301 297 289 279 266 252 254 255 260 264 263 258 256 254 258 260 259 246 227 230 225 230 232 248 245 249 244 232 238 236
320 320 320 317 316 315 310 305 308 306 304 304 308 306 303 299 283 262 251 244 247 252 257 263 261 246 251 246 256 257 262 238 240 232 245 240 241 244 242 235 227 228 228
320 317 315 314 314 315 312 310 306 303 301 302 302 299 298 302 290 275 259 261 263 255 250 251 254 247 241 240 248 256 253 249 239 233 241 232 230 236 231 230 222 225 217
320 316 318 321 323 325 321 315 309 308 306 303 300 294 289 282 275 272 268 248 254 247 251 254 253 255 243 243 245 251 251 246 244 240 243 244 228 218 218 223 220 221 214
327 333 334 331 327 325 324 321 314 307 302 299 294 290 287 282 279 276 262 260 255 252 262 242 247 248 242 238 243 243 246 244 240 237 235 241 240 239 229 224 224 224 215
337 336 335 334 332 326 325 325 325 322 316 304 293 283 280 276 276 272 267 261 263 262 262 257 244 241 242 233 236 241 246 244 242 237 231 230 229 231 232 223 224 220 218
332 332 333 332 334 334 330 326 324 327 329 332 327 313 288 279 274 268 262 257 257 255 255 252 252 247 240 240 243 237 243 246 239 238 229 230 230 231 234 229 226 217 215
331 337 338 336 333 329 329 329 328 324 322 324 330 330 316 289 274 268 260 251 248 249 250 248 242 238 235 233 232 222 220 231 235 232 229 226 228 230 231 217 222 216 218
325 328 333 333 332 329 329 326 327 328 326 323 323 322 329 317 285 263 257 246 249 247 249 244 238 242 237 220 217 219 223 232 238 235 240 238 240 233 233 223 216 219 216
339 335 333 331 331 331 331 327 325 324 321 319 317 316 318 317 308 289 272 258 248 245 248 247 237 232 236 224 214 212 221 224 230 235 236 243 241 255 238 238 213 208 215
343 339 337 336 338 337 333 328 324 321 320 317 311 309 305 301 298 290 275 250 250 253 243 246 239 228 227 229 219 216 224 225 231 241 246 250 254 253 248 251 200 207 207
342 340 341 339 335 335 333 328 325 322 319 315 311 309 305 298 290 289 284 265 249 241 241 241 234 229 226 225 226 226 229 234 240 249 259 255 250 238 235 255 223 203 206
341 343 343 342 341 340 335 332 329 323 319 314 312 311 305 299 290 286 283 275 260 241 238 236 238 229 222 225 223 220 221 232 233 238 244 236 228 236 216 246 228 198 209
351 345 344 343 342 343 340 336 334 329 324 319 315 312 306 300 294 283 274 270 259 243 232 236 230 226 220 217 213 212 220 232 234 234 237 238 235 224 218 241 206 180 186
353 349 349 348 346 345 343 341 338 335 330 326 321 316 311 302 295 286 272 260 257 245 242 229 228 220 217 214 208 206 212 217 228 231 236 239 238 233 202 210 233 214 199
353 352 352 351 350 351 348 344 342 338 334 331 327 321 315 306 296 286 272 257 253 234 239 220 219 220 217 212 207 207 214 219 224 227 242 253 214 224 225 200 205 202 209
Wind_Speed_850mb
29 30 33 38 39 37 38 38 30 31 33 35 28 19 18 18 22 28 38 47 56 72 61 46 45 30 31 46 45 41 43 42 37 38 43 35 29 23 22 16 13 17 13
34 37 40 42 39 42 39 40 36 32 30 31 30 24 18 13 17 18 25 51 62 70 68 58 54 39 40 38 44 41 50 50 47 41 45 39 29 22 22 18 16 14 13
36 41 38 39 43 45 41 36 37 36 35 35 30 25 31 23 19 21 17 18 47 71 63 59 79 64 64 47 48 56 54 55 50 43 40 41 30 24 22 22 21 20 18
44 39 38 41 40 33 35 36 30 28 33 35 35 27 27 37 22 19 19 21 27 49 61 75 76 70 62 68 60 62 56 57 53 49 39 38 32 27 25 25 23 19 17
35 37 37 40 43 43 44 42 41 37 34 35 29 33 33 37 39 30 28 25 21 30 48 62 81 68 65 81 73 69 61 63 62 58 51 44 34 30 37 27 25 21 18
35 42 46 51 52 49 45 41 38 33 27 24 29 25 24 29 37 37 31 28 20 19 20 30 63 70 75 85 81 89 47 56 69 74 63 57 36 38 40 34 35 29 22
38 43 47 53 56 55 54 55 54 52 50 44 38 28 25 23 27 37 39 38 36 34 29 29 38 50 78 72 87 94 85 72 78 81 67 59 46 45 49 45 44 34 23
53 58 63 68 69 69 66 65 64 61 57 54 55 54 47 34 32 34 41 45 51 48 47 45 37 42 51 54 83 115 96 87 89 76 67 71 54 41 44 41 40 35 30
51 51 51 56 64 66 65 58 54 55 54 57 58 58 54 56 50 38 40 47 54 50 54 50 50 41 40 47 54 79 95 119 104 92 90 70 61 38 37 52 52 47 33
56 61 62 62 59 59 60 59 58 56 54 53 53 53 54 58 58 56 55 51 59 64 59 56 57 54 47 41 51 79 93 106 101 81 88 84 73 81 58 59 66 52 35
55 55 54 53 56 58 59 64 62 63 61 59 53 49 49 48 49 47 55 57 69 76 83 76 62 60 53 48 46 51 83 109 97 102 103 103 99 73 78 78 74 48 40
53 53 57 64 64 65 67 65 61 56 55 55 53 50 45 38 29 29 32 39 46 54 61 64 68 68 59 44 43 44 42 76 98 114 116 125 123 95 75 75 68 55 43
48 57 63 64 59 55 57 60 59 57 56 56 54 49 48 38 31 26 32 44 49 52 51 59 64 68 73 60 54 45 46 48 67 77 70 90 108 115 76 72 69 62 47
60 63 60 59 58 57 57 53 53 54 55 54 51 50 48 43 45 40 33 40 39 52 58 62 66 60 75 70 62 54 51 51 52 62 65 62 72 74 76 74 72 66 61
54 52 54 57 56 58 55 52 50 49 47 50 51 52 55 58 54 49 48 55 49 54 44 42 56 56 53 65 63 61 55 55 55 52 61 59 61 64 70 81 75 76 74
51 52 53 54 54 55 57 63 58 55 49 45 45 47 53 58 58 55 52 51 52 55 63 49 36 38 38 55 63 64 61 55 54 55 53 55 70 66 73 80 84 93 82
50 52 51 51 53 55 55 59 69 64 57 50 43 36 34 41 43 43 45 44 48 44 60 64 54 41 36 40 50 63 61 59 44 45 51 55 56 55 81 73 83 99 92
48 49 51 54 55 55 55 56 58 63 66 63 53 46 38 30 33 35 39 43 50 48 56 67 60 51 36 38 44 40 37 48 43 44 44 52 50 61 63 84 88 98 104
49 49 50 54 56 57 56 56 57 59 63 67 65 56 46 37 31 31 33 46 47 48 46 56 63 62 42 33 29 35 38 43 44 33 36 48 45 52 65 86 103 96 103
46 46 48 53 56 59 60 61 62 63 65 65 64 60 54 45 42 33 30 31 43 48 45 47 55 62 57 40 33 29 31 35 30 34 40 40 48 38 63 72 96 104 101
50 51 51 52 57 60 63 64 65 67 67 64 61 57 52 50 48 43 37 39 35 35 40 40 47 54 63 55 43 37 34 32 29 30 36 34 30 45 44 54 90 102 105
49 52 54 59 60 65 67 63 63 65 65 62 61 58 51 48 45 43 40 39 40 46 35 32 37 47 53 59 60 53 51 39 32 27 27 34 30 37 47 69 54 113 104
47 54 59 60 62 68 66 64 64 61 60 58 55 53 47 44 41 40 39 37 35 43 49 50 44 37 43 52 55 60 48 41 35 29 28 34 25 35 47 43 47 77 101
53 57 59 62 66 72 68 68 66 60 56 54 51 50 45 45 40 40 38 35 33 37 43 46 58 52 43 43 55 56 64 41 26 36 38 35 41 36 37 44 38 35 91
57 61 63 66 71 73 71 70 66 62 57 55 53 50 48 44 42 38 35 37 37 34 35 44 44 57 54 46 44 57 50 42 45 33 32 29 30 27 36 44 45 32 22
60 62 67 69 73 70 71 69 65 60 57 55 52 48 45 42 40 37 35 34 34 33 31 37 37 45 55 53 51 52 61 59 53 51 32 34 41 47 55 46 46 51 47
Wind_Direction_850mb
360 355 347 343 340 342 348 348 352 359 359 1 3 348 334 334 306 293 257 241 245 240 244 258 266 260 253 238 248 241 228 229 230 223 222 220 226 239 253 251 243 243 237
342 330 333 328 329 333 340 341 338 341 343 346 351 347 339 332 334 325 276 249 245 242 238 238 250 251 237 234 251 253 226 242 243 243 223 218 225 241 246 246 239 250 246
318 318 330 327 325 329 336 340 338 342 329 329 329 339 328 331 325 341 332 320 253 243 238 243 248 245 234 242 235 254 237 235 241 243 229 224 218 229 244 238 238 236 236
312 316 317 310 312 319 317 316 319 316 316 323 322 314 314 318 318 308 329 327 298 244 239 243 251 243 232 230 236 247 238 226 230 233 228 223 222 219 235 236 240 251 246
299 295 297 293 294 301 304 304 305 308 303 299 300 308 307 310 311 313 298 302 310 256 256 246 240 237 240 230 247 249 240 237 223 220 221 226 225 231 238 238 235 250 258
296 291 292 293 294 297 294 299 302 301 301 301 288 277 304 298 295 298 296 292 288 294 289 261 251 257 243 235 251 240 243 230 225 225 224 228 225 245 241 239 238 239 249
292 297 299 298 296 295 297 296 294 296 294 291 288 290 270 255 266 275 278 275 275 271 264 273 276 251 240 251 239 238 240 229 224 227 223 230 236 239 245 237 235 236 252
301 300 300 299 299 299 298 294 293 294 293 290 285 283 280 274 255 250 259 275 271 272 270 265 269 267 258 254 238 236 237 235 226 228 228 233 249 243 244 256 245 227 241
313 311 311 310 310 308 308 308 306 300 297 292 287 283 279 273 261 253 243 250 262 271 267 262 262 265 268 267 258 245 239 234 234 226 225 231 231 231 248 251 226 220 233
317 316 314 311 311 313 312 312 309 310 308 305 297 292 286 278 266 258 246 247 253 264 271 264 257 260 259 266 258 252 236 226 222 215 214 227 245 243 263 248 241 231 230
319 318 320 319 318 317 314 310 310 308 307 303 303 301 297 289 279 266 252 254 255 260 264 263 258 256 254 258 260 259 246 227 230 225 230 232 248 245 249 244 232 238 236
320 320 320 317 316 315 310 305 308 306 304 304 308 306 303 299 283 262 251 244 247 252 257 263 261 246 251 246 256 257 262 238 240 232 245 240 241 244 242 235 227 228 228
320 317 315 314 314 315 312 310 306 303 301 302 302 299 298 302 290 275 259 261 263 255 250 251 254 247 241 240 248 256 253 249 239 233 241 232 230 236 231 230 222 225 217
320 316 318 321 323 325 321 315 309 308 306 303 300 294 289 282 275 272 268 248 254 247 251 254 253 255 243 243 245 251 251 246 244 240 243 244 228 218 218 223 220 221 214
327 333 334 331 327 325 324 321 314 307 302 299 294 290 287 282 279 276 262 260 255 252 262 242 247 248 242 238 243 243 246 244 240 237 235 241 240 239 229 224 224 224 215
337 336 335 334 332 326 325 325 325 322 316 304 293 283 280 276 276 272 267 261 263 262 262 257 244 241 242 233 236 241 246 244 242 237 231 230 229 231 232 223 224 220 218
332 332 333 332 334 334 330 326 324 327 329 332 327 313 288 279 274 268 262 257 257 255 255 252 252 247 240 240 243 237 243 246 239 238 229 230 230 231 234 229 226 217 215
331 337 338 336 333 329 329 329 328 324 322 324 330 330 316 289 274 268 260 251 248 249 250 248 242 238 235 233 232 222 220 231 235 232 229 226 228 230 231 217 222 216 218
325 328 333 333 332 329 329 326 327 328 326 323 323 322 329 317 285 263 257 246 249 247 249 244 238 242 237 220 217 219 223 232 238 235 240 238 240 233 233 223 216 219 216
339 335 333 331 331 331 331 327 325 324 321 319 317 316 318 317 308 289 272 258 248 245 248 247 237 232 236 224 214 212 221 224 230 235 236 243 241 255 238 238 213 208 215
343 339 337 336 338 337 333 328 324 321 320 317 311 309 305 301 298 290 275 250 250 253 243 246 239 228 227 229 219 216 224 225 231 241 246 250 254 253 248 251 200 207 207
342 340 341 339 335 335 333 328 325 322 319 315 311 309 305 298 290 289 284 265 249 241 241 241 234 229 226 225 226 226 229 234 240 249 259 255 250 238 235 255 223 203 206
341 343 343 342 341 340 335 332 329 323 319 314 312 311 305 299 290 286 283 275 260 241 238 236 238 229 222 225 223 220 221 232 233 238 244 236 228 236 216 246 228 198 209
351 345 344 343 342 343 340 336 334 329 324 319 315 312 306 300 294 283 274 270 259 243 232 236 230 226 220 217 213 212 220 232 234 234 237 238 235 224 218 241 206 180 186
353 349 349 348 346 345 343 341 338 335 330 326 321 316 311 302 295 286 272 260 257 245 242 229 228 220 217 214 208 206 212 217 228 231 236 239 238 233 202 210 233 214 199
353 352 352 351 350 351 348 344 342 338 334 331 327 321 315 306 296 286 272 257 253 234 239 220 219 220 217 212 207 207 214 219 224 227 242 253 214 224 225 200 205 202 209